Regional Weather Roundup
Issued by NWS Charleston, WV

Home | Current Version | Previous Version | Graphics & Text | Print | Product List | Glossary On
Versions: 1 2 3 4 5 6 7 8 9 10 11 12 13 14 15 16 17 18 19 20 21 22 23 24 25 26 27 28
000
ASUS41 KRLX 242310
RWRRLX
West Virginia Regional Weather Roundup
National Weather Service Charleston WV
700 PM EDT WED MAY 24 2017

Note: "fair" indicates few or no clouds below 12,000 feet with no
significant weather and/or obstructions to visibility.

WVZ003-250000-
Northern Panhandle of West Virginia

CITY           SKY/WX    TMP DP  RH WIND       PRES   REMARKS
WHEELING       CLOUDY    61  56  83 E14       29.52S
$$

WVZ009-250000-
Northwest West Virginia

CITY           SKY/WX    TMP DP  RH WIND       PRES   REMARKS
PARKERSBURG    LGT RAIN  64  60  87 SE10      29.48F
$$

WVZ006-250000-
Western West Virginia

CITY           SKY/WX    TMP DP  RH WIND       PRES   REMARKS
HUNTINGTON     MOSUNNY   68  61  78 SE12      29.39F
$$

WVZ015-250000-
West Central West Virginia

CITY           SKY/WX    TMP DP  RH WIND       PRES   REMARKS
CHARLESTON     PTSUNNY   66  60  81 SE5       29.45S
$$

WVZ022-031-250000-
North Central West Virginia

CITY           SKY/WX    TMP DP  RH WIND       PRES   REMARKS
CLARKSBURG     LGT RAIN  61  57  87 SE7       29.54F
MORGANTOWN     LGT RAIN  60  54  80 SE8       29.56F
$$

WVZ025-035-042-045-250000-
Southern West Virginia

CITY           SKY/WX    TMP DP  RH WIND       PRES   REMARKS
BECKLEY        CLOUDY    58  55  90 SE12G21   29.54F
LOGAN            N/A     66  59  77 S7G14     29.46S
BLUEFIELD      LGT RAIN  56  54  93 VRB5      29.55F
LEWISBURG      RAIN      56  54  94 E3        29.58S
$$

WVZ047-250000-
Northern Mountains of West Virginia

CITY           SKY/WX    TMP DP  RH WIND       PRES   REMARKS
ELKINS         CLOUDY    59  54  83 CALM      29.59F
$$

WVZ052-250000-
Eastern Panhandle of West Virginia

CITY           SKY/WX    TMP DP  RH WIND       PRES   REMARKS
MARTINSBURG    CLOUDY    61  55  81 E6        29.69R
PETERSBURG     CLOUDY    60  60  97 CALM      29.65S
$$




USA.gov is the U.S. government's official web portal to all federal, state and local government web resources and services.